Regional Weather Roundup
Issued by NWS Cleveland, OH

Home | Current Version | Previous Version | Graphics & Text | Print | Product List | Glossary On
Versions: 1 2 3 4 5 6 7 8 9 10 11 12 13 14 15 16 17 18 19 20 21 22 23 24 25 26 27 28 29 30 31 32 33 34 35 36 37 38 39 40 41 42 43 44 45 46 47 48 49 50
000
ASUS41 KCLE 261710
RWRCLE
OHIO REGIONAL WEATHER ROUNDUP
NATIONAL WEATHER SERVICE CLEVELAND, OH
100 PM EDT FRI AUG 26 2016

NOTE: "FAIR" INDICATES FEW OR NO CLOUDS BELOW 12,000 FEET WITH NO
SIGNIFICANT WEATHER AND/OR OBSTRUCTIONS TO VISIBILITY.

OHZ001>008-015>018-024>027-034-035-043-044-261800-
   NORTHWEST OHIO

CITY           SKY/WX    TMP DP  RH WIND       PRES   REMARKS
DEFIANCE       SUNNY     80  62  54 S3        30.17S
FINDLAY        MOSUNNY   80  59  48 CALM      30.16F
TOLEDO EXPRESS SUNNY     80  63  55 NW7       30.16S
TOLEDO EXEC    SUNNY     82  61  48 CALM      30.16F
LIMA           PTSUNNY   79  62  56 CALM      30.18S
$$

OHZ009>014-019>023-028>033-038-089-261800-
   NORTHEAST OHIO

CITY           SKY/WX    TMP DP  RH WIND       PRES   REMARKS
CLE-HOPKINS    MOSUNNY   81  63  54 VRB5      30.18S
CLE-LAKEFRONT  MOSUNNY   78  62  57 NW6       30.15S
CUY CO. ARPT   MOSUNNY   79  64  61 NW7       30.17S
LORAIN-ELYRIA  CLOUDY    78  62  57 N6        30.17S
ASHTABULA      SUNNY     79  68  69 N7        30.16F
AKRON-CANTON   MOSUNNY   84  60  44 VRB5      30.16F
WOOSTER        SUNNY     82  62  50 NW5       30.17F
MANSFIELD      PTSUNNY   82  55  39 VRB3      30.18F
YOUNGSTOWN     MOSUNNY   80  62  54 W7        30.17S
$$

OHZ042-051>053-060>062-070>072-077>081-261800-
  SOUTHWEST OHIO

CITY           SKY/WX    TMP DP  RH WIND       PRES   REMARKS
CINC-COVINGTON MOSUNNY   87  74  64 VRB5      30.14F HX  95
CINC-LUNKEN    MOSUNNY   88  75  66 S5        30.13F HX  97
HAMILTON       PTSUNNY   87  72  60 NW3       30.14F HX  93
DAYTON         CLOUDY    84  73  69 N6        30.17S HX  90
WRIGHT-PAT AFB PTSUNNY   85  72  65 VRB2      30.14F HX  91
DAYTON GENERAL PTSUNNY   86  71  60 W5        30.14F HX  91
WILMINGTON     PTSUNNY   85  74  69 S3        30.15F HX  92
$$

OHZ036-037-039>041-045>050-054>059-063>069-073>076-082>088-261800-
  CENTRAL AND SOUTHEAST OHIO

CITY           SKY/WX    TMP DP  RH WIND       PRES   REMARKS
COLUMBUS       PTSUNNY   85  71  63 CALM      30.14S HX  90
OSU AIRPORT    PTSUNNY   86  72  62 W9        30.15S HX  92
BOLTON FIELD   MOSUNNY   84  73  70 W5        30.16S HX  91
RICKENBACK AFB SUNNY     85  71  64 W6        30.14S HX  90
NEWARK         MOSUNNY   85  71  63 NW3       30.14F HX  90
MARION         CLOUDY    80  58  46 NW6       30.17F
LANCASTER      SUNNY     87  72  60 CALM      30.14F HX  93
ZANESVILLE     PTSUNNY   86  71  60 CALM      30.14F HX  91
NEW PHILLY     MOSUNNY   86  67  52 NW6       30.15F
$$



USA.gov is the U.S. government's official web portal to all federal, state and local government web resources and services.